Milwaukee, WI

3:52 AM CDT on April 26, 2017 (GMT -0500)
Gen Mitchell International

Weather History for KMKE - September, 2013

Change the Weather History Date:

Tuesday, September 10, 2013

  Actual Average Record
Temperature  
Mean Temperature 87 °F 66 °F  
Max Temperature 95 °F 74 °F 97 °F (1931)
Min Temperature 78 °F 57 °F 39 °F (1883)
Degree Days  
Heating Degree Days 0 3  
Month to date heating degree days 2 17  
Since 1 July heating degree days 24 43  
Cooling Degree Days 22 3  
Month to date cooling degree days 70 38  
Year to date cooling degree days 647 603  
Growing Degree Days 36 (Base 50)    
Moisture  
Dew Point 64 °F    
Average Humidity 49    
Maximum Humidity 65    
Minimum Humidity 33    
Precipitation  
Precipitation 0.00 in 0.10 in 1.74 in (1986)
Month to date precipitation 0.50 1.03  
Year to date precipitation 30.63 25.21  
Snow  
Snow 0.00 in 0.00 in 0.00 in ()
Month to date snowfall 0.0 0.0  
Since 1 July snowfall 0.0 0.0  
Since 1 September snowfall 0.0 0.0  
Snow Depth 0.00 in    
Sea Level Pressure  
Sea Level Pressure 29.89 in    
Wind  
Wind Speed 14 mph (SW)    
Max Wind Speed 23 mph    
Max Gust Speed 30 mph    
Visibility 10 miles    
Events      
T = Trace of Precipitation, MM = Missing Value Source: NWS Daily Summary

Daily Weather History Graph

Daily Weather History Graph

Search for Another Location

Airport or City:

Trip Planner

Search our weather history database for the weather conditions in past years. The results will help you decide how hot, cold, wet, or windy it might be!

Date:

Astronomy

Sep. 10, 2013 Rise Set
Actual Time 6:26 AM CDT 7:10 PM CDT
Civil Twilight 5:57 AM CDT 7:38 PM CDT
Nautical Twilight 5:23 AM CDT 8:12 PM CDT
Astronomical Twilight 4:48 AM CDT 8:47 PM CDT
Moon 12:00 PM CDT (9/10) 10:03 PM CDT (9/10)
Length of Visible Light 13h 41m
Length of Day
12h 43m
Waxing Crescent, 28% of the Moon is Illuminated
Sep 10
Waxing Crescent
Sep 12
First Quarter
Sep 19
Full
Sep 26
Last Quarter
Oct 4
New

Hourly Weather History & Observations

Time (CDT) Temp. Heat Index Dew Point Humidity Pressure Visibility Wind Dir Wind Speed Gust Speed Precip Events Conditions
12:52 AM 82.9 °F 86.5 °F 69.1 °F 63% 29.81 in 10.0 mi SW 13.8 mph - N/A   Scattered Clouds
1:52 AM 82.9 °F 85.8 °F 68.0 °F 60% 29.82 in 10.0 mi WSW 16.1 mph 23.0 mph N/A   Partly Cloudy
2:52 AM 82.0 °F 84.5 °F 66.9 °F 60% 29.84 in 10.0 mi WSW 13.8 mph 19.6 mph N/A   Partly Cloudy
3:52 AM 80.1 °F 82.1 °F 66.0 °F 62% 29.84 in 10.0 mi WSW 10.4 mph - N/A   Clear
4:52 AM 80.1 °F 81.9 °F 64.9 °F 60% 29.86 in 10.0 mi WSW 11.5 mph 19.6 mph N/A   Clear
5:52 AM 78.1 °F - 64.0 °F 62% 29.87 in 10.0 mi WSW 12.7 mph - N/A   Clear
6:52 AM 78.1 °F - 63.0 °F 60% 29.89 in 10.0 mi WSW 12.7 mph - N/A   Partly Cloudy
7:52 AM 79.0 °F - 62.1 °F 56% 29.91 in 10.0 mi WSW 13.8 mph 23.0 mph N/A   Partly Cloudy
8:52 AM 81.0 °F 82.2 °F 63.0 °F 54% 29.91 in 10.0 mi WSW 11.5 mph - N/A   Clear
9:52 AM 84.0 °F 84.9 °F 63.0 °F 49% 29.92 in 10.0 mi WSW 16.1 mph - N/A   Clear
10:52 AM 87.1 °F 87.8 °F 63.0 °F 44% 29.92 in 10.0 mi WSW 16.1 mph 20.7 mph N/A   Clear
11:52 AM 91.0 °F 91.9 °F 63.0 °F 39% 29.91 in 10.0 mi WSW 16.1 mph 23.0 mph N/A   Clear
12:52 PM 93.0 °F 93.8 °F 62.1 °F 36% 29.91 in 10.0 mi SW 15.0 mph 25.3 mph N/A   Clear
1:52 PM 93.9 °F 95.6 °F 64.0 °F 37% 29.90 in 10.0 mi WSW 16.1 mph 23.0 mph N/A   Clear
2:52 PM 93.9 °F 94.0 °F 61.0 °F 33% 29.90 in 10.0 mi WSW 19.6 mph 29.9 mph N/A   Clear
3:52 PM 93.9 °F 94.8 °F 62.1 °F 35% 29.89 in 10.0 mi SW 18.4 mph 24.2 mph N/A   Clear
4:52 PM 93.0 °F 93.8 °F 62.1 °F 36% 29.88 in 10.0 mi SW 16.1 mph 21.9 mph N/A   Clear
5:52 PM 91.0 °F 91.5 °F 62.1 °F 38% 29.88 in 10.0 mi SW 11.5 mph - N/A   Clear
6:52 PM 88.0 °F 87.9 °F 61.0 °F 40% 29.90 in 10.0 mi SW 9.2 mph - N/A   Clear
7:52 PM 84.0 °F 84.4 °F 61.0 °F 46% 29.92 in 10.0 mi SSW 9.2 mph - N/A   Partly Cloudy
8:52 PM 82.9 °F 84.4 °F 64.0 °F 53% 29.94 in 10.0 mi SSW 10.4 mph - N/A   Clear
9:52 PM 82.9 °F 84.4 °F 64.0 °F 53% 29.93 in 10.0 mi SW 11.5 mph - N/A   Clear
10:52 PM 82.0 °F 83.8 °F 64.9 °F 56% 29.92 in 10.0 mi SW 11.5 mph - N/A   Clear
11:52 PM 82.0 °F 84.1 °F 66.0 °F 58% 29.92 in 10.0 mi SW 17.3 mph 23.0 mph N/A   Clear